Location: Devore Heights
(34.2372°N, 117.4156°W)
Time: 19:58:26
(UTC+00:00)

deb Explorer IX - Pass Details

Date: 20 September 2024
Orbit: 502 x 816 km, 38.7° (Epoch: 15 October)

Event Time Altitude Azimuth Distance (km) Brightness Sun altitude
Rises 06:54:45 0° 288° (WNW) 3,398 - -53.1°
Reaches altitude 10° 06:57:24 10° 283° (WNW) 2,446 - -53.3°
Maximum altitude 07:03:00 48° 211° (SSW) 1,044 - -53.7°
Drops below altitude 10° 07:08:14 10° 138° (SE) 2,290 - -54.0°
Sets 07:10:39 0° 132° (SE) 3,161 - -54.1°
